This demonstration page uses our WeatherBlox Daily Observations layout. Learn more.

Left ArrowRight Arrow

Hourly Observations for February 9, 2017

Temp ( °F °C ) Dew Point ( °F °C ) Humidity (%) Winds ( mph kmh ) Pressure ( in mb ) Visibility ( mi km ) Precip ( " mm )
12:53 am 00:53 undefined 43 6.1 26 -3.3 51 51 N 6 9 30.17 1022 N/A 0.00 0.00
1:53 am 01:53 Clear 41 5 26 -3.3 55 55 NNE 7 11 30.17 1022 10 16 0.00 0.00
2:53 am 02:53 Clear 40 4.4 27 -2.8 60 60 N 7 11 30.17 1022 10 16 0.00 0.00
3:53 am 03:53 Clear 39 3.9 26 -3.3 60 60 N 5 7 30.16 1021 10 16 0.00 0.00
4:53 am 04:53 undefined N/A N/A N/A undefined N/A N/A N/A 0.00 0.00
5:53 am 05:53 undefined N/A N/A N/A undefined N/A N/A N/A 0.00 0.00
6:53 am 06:53 Clear 43 6.1 27 -2.8 53 53 E 9 15 30.17 1022 10 16 0.00 0.00
7:53 am 07:53 Sunny 41 5 27 -2.8 57 57 ENE 6 9 30.21 1023 10 16 0.00 0.00
8:53 am 08:53 Sunny 46 7.8 28 -2.2 50 50 ESE 3 6 30.22 1023 10 16 0.00 0.00
9:53 am 09:53 Sunny 52 11.1 28 -2.2 40 40 SE 7 11 30.23 1024 10 16 0.00 0.00
10:53 am 10:53 Sunny 57 13.9 28 -2.2 33 33 SE 10 17 30.23 1024 10 16 0.00 0.00
11:53 am 11:53 Sunny 62 16.7 28 -2.2 28 28 SSE 10 17 30.21 1023 10 16 0.00 0.00
12:53 pm 12:53 Sunny 65 18.3 29 -1.7 26 26 SE 9 15 30.18 1022 10 16 0.00 0.00
1:53 pm 13:53 Sunny 70 21.1 30 -1.1 23 23 SSE 14 22 30.12 1020 10 16 0.00 0.00
2:53 pm 14:53 Sunny 74 23.3 31 -0.6 20 20 S 10 17 30.08 1019 10 16 0.00 0.00
3:53 pm 15:53 Sunny 76 24.4 31 -0.6 19 19 SSE 13 20 30.05 1018 10 16 0.00 0.00
4:53 pm 16:53 Sunny 76 24.4 31 -0.6 19 19 SSE 8 13 29.97 1015 10 16 0.00 0.00
5:53 pm 17:53 Sunny 73 22.8 31 -0.6 21 21 SE 8 13 29.97 1015 10 16 0.00 0.00
6:53 pm 18:53 Clear 67 19.4 30 -1.1 25 25 SE 10 17 30.04 1017 10 16 0.00 0.00
7:53 pm 19:53 Clear 65 18.3 28 -2.2 25 25 SE 13 20 30.06 1018 10 16 0.00 0.00
8:53 pm 20:53 Clear 62 16.7 26 -3.3 25 25 SE 14 22 30.06 1018 10 16 0.00 0.00
9:53 pm 21:53 Clear 60 15.6 27 -2.8 28 28 SE 14 22 30.06 1018 10 16 0.00 0.00
10:53 pm 22:53 Clear 57 13.9 27 -2.8 32 32 SE 14 22 30.06 1018 10 16 0.00 0.00
11:53 pm 23:53 Clear 56 13.3 27 -2.8 33 33 SE 14 22 30.05 1018 10 16 0.00 0.00

Powered by AerisWeather